Marfa, TX

1:37 AM CST on February 21, 2018 (GMT -0600)
Marfa Municipal

Weather History for KMRF - November, 2011

Change the Weather History Date:

Saturday, November 26, 2011

  Actual Average Record
Temperature  
Mean Temperature 38 °F -  
Max Temperature 51 °F 59 °F 77 °F (1997)
Min Temperature 24 °F 30 °F 15 °F (2007)
Degree Days  
Heating Degree Days 26    
Moisture  
Dew Point 22 °F    
Average Humidity 49    
Maximum Humidity 81    
Minimum Humidity 22    
Precipitation  
Precipitation 0.00 in - - ()
Sea Level Pressure  
Sea Level Pressure 30.29 in    
Wind  
Wind Speed 13 mph (North)    
Max Wind Speed 29 mph    
Max Gust Speed 34 mph    
Visibility 10 miles    
Events      
Averages and records for this station are not official NWS values.
T = Trace of Precipitation, MM = Missing Value Source: NWS Daily Summary

Daily Weather History Graph

Daily Weather History Graph

Search for Another Location

Airport or City:

Trip Planner

Search our weather history database for the weather conditions in past years. The results will help you decide how hot, cold, wet, or windy it might be!

Date:

Astronomy

Nov. 26, 2011 Rise Set
Actual Time 7:30 AM CST 5:55 PM CST
Civil Twilight 7:04 AM CST 6:21 PM CST
Nautical Twilight 6:35 AM CST 6:50 PM CST
Astronomical Twilight 6:06 AM CST 7:19 PM CST
Moon 9:00 AM CST (11/26) 7:32 PM CST (11/26)
Length of Visible Light 11h 16m
Length of Day
10h 24m
Waxing Crescent, 3% of the Moon is Illuminated
Nov 26
Waxing Crescent
Dec 2
First Quarter
Dec 10
Full
Dec 17
Last Quarter
Dec 24
New

Hourly Weather History & Observations

Time (CST) Temp. Windchill Dew Point Humidity Pressure Visibility Wind Dir Wind Speed Gust Speed Precip Events Conditions
12:35 AM 44.6 °F 42.2 °F 35.6 °F 71% 30.07 in 10.0 mi WNW 4.6 mph - N/A   Clear
12:55 AM 44.6 °F 37.8 °F 35.6 °F 71% 30.08 in 10.0 mi WNW 15.0 mph - N/A   Clear
1:15 AM 44.6 °F 39.2 °F 35.6 °F 71% 30.08 in 10.0 mi WNW 10.4 mph - N/A   Clear
1:35 AM 46.4 °F 40.7 °F 35.6 °F 66% 30.08 in 10.0 mi West 12.7 mph 17.3 mph N/A   Clear
1:55 AM 44.6 °F 39.2 °F 35.6 °F 71% 30.07 in 10.0 mi WNW 10.4 mph - N/A   Clear
2:15 AM 42.8 °F - 35.6 °F 76% 30.07 in 10.0 mi Calm Calm - N/A   Clear
2:35 AM 39.2 °F 37.0 °F 33.8 °F 81% 30.07 in 10.0 mi SSE 3.5 mph - N/A   Clear
2:55 AM 39.2 °F - 33.8 °F 81% 30.07 in 10.0 mi Calm Calm - N/A   Clear
3:15 AM 39.2 °F 35.0 °F 33.8 °F 81% 30.07 in 10.0 mi ENE 5.8 mph - N/A   Clear
3:35 AM 42.8 °F 40.1 °F 35.6 °F 76% 30.08 in 10.0 mi NNW 4.6 mph - N/A   Clear
3:55 AM 39.2 °F 32.5 °F 33.8 °F 81% 30.07 in 10.0 mi West 10.4 mph - N/A   Clear
4:35 AM 42.8 °F 35.1 °F 35.6 °F 76% 30.08 in 10.0 mi WNW 16.1 mph - N/A   Clear
4:55 AM 42.8 °F 37.5 °F 35.6 °F 76% 30.09 in 10.0 mi NW 9.2 mph - N/A   Clear
5:15 AM 41.0 °F 33.5 °F 35.6 °F 81% 30.10 in 10.0 mi NW 13.8 mph - N/A   Clear
5:35 AM 41.0 °F 34.7 °F 35.6 °F 81% 30.11 in 10.0 mi NW 10.4 mph - N/A   Clear
6:15 AM 44.6 °F 38.1 °F 33.8 °F 66% 30.12 in 10.0 mi WNW 13.8 mph - N/A   Clear
6:35 AM 44.6 °F 37.8 °F 33.8 °F 66% 30.13 in 10.0 mi WNW 15.0 mph 23.0 mph N/A   Clear
6:55 AM 44.6 °F 37.8 °F 33.8 °F 66% 30.15 in 10.0 mi WNW 15.0 mph - N/A   Clear
7:15 AM 42.8 °F 38.0 °F 32.0 °F 66% 30.16 in 10.0 mi WNW 8.1 mph - N/A   Clear
7:35 AM 39.2 °F 35.0 °F 30.2 °F 70% 30.18 in 10.0 mi North 5.8 mph - N/A   Clear
7:55 AM 42.8 °F 35.4 °F 30.2 °F 61% 30.19 in 10.0 mi NW 15.0 mph 21.9 mph N/A   Clear
8:15 AM 44.6 °F 40.7 °F 30.2 °F 57% 30.20 in 10.0 mi NNW 6.9 mph - N/A   Clear
8:35 AM 44.6 °F 40.2 °F 30.2 °F 57% 30.22 in 10.0 mi NW 8.1 mph - N/A   Clear
9:15 AM 51.8 °F - 24.8 °F 35% 30.24 in 10.0 mi NNW 21.9 mph 27.6 mph N/A   Clear
9:35 AM 50.0 °F - 24.8 °F 37% 30.26 in 8.0 mi North 28.8 mph 33.4 mph N/A   Clear
9:55 AM 48.2 °F - 30.2 °F 50% 30.28 in 10.0 mi North 24.2 mph - N/A   Clear
10:15 AM 48.2 °F - 32.0 °F 54% 30.30 in 9.0 mi NNE 25.3 mph - N/A   Mostly Cloudy
10:35 AM 48.2 °F - 30.2 °F 50% 30.31 in 6.0 mi North 26.5 mph 33.4 mph N/A   Partly Cloudy
10:55 AM 46.4 °F 37.5 °F 28.4 °F 50% 30.32 in 7.0 mi NNE 27.6 mph 33.4 mph N/A   Clear
11:15 AM 46.4 °F 38.1 °F 28.4 °F 50% 30.33 in 10.0 mi NNE 24.2 mph 29.9 mph N/A   Clear
11:35 AM 48.2 °F - 28.4 °F 46% 30.33 in 10.0 mi North 26.5 mph 33.4 mph N/A   Partly Cloudy
11:55 AM 46.4 °F 37.5 °F 28.4 °F 50% 30.34 in 2.0 mi NNE 27.6 mph 34.5 mph N/A   Scattered Clouds
12:15 PM 48.2 °F - 28.4 °F 46% 30.34 in 8.0 mi NNE 26.5 mph 34.5 mph N/A   Mostly Cloudy
12:35 PM 46.4 °F 37.7 °F 30.2 °F 53% 30.34 in 10.0 mi NNE 26.5 mph 29.9 mph N/A   Overcast
12:55 PM 46.4 °F 37.7 °F 28.4 °F 50% 30.35 in 10.0 mi NNE 26.5 mph 33.4 mph N/A   Mostly Cloudy
1:15 PM 46.4 °F 37.5 °F 26.6 °F 46% 30.35 in 10.0 mi North 27.6 mph - N/A   Mostly Cloudy
1:55 PM 46.4 °F 37.7 °F 26.6 °F 46% 30.35 in 10.0 mi North 26.5 mph 31.1 mph N/A   Scattered Clouds
2:15 PM 46.4 °F 38.1 °F 23.0 °F 40% 30.35 in 10.0 mi North 24.2 mph 32.2 mph N/A   Scattered Clouds
2:55 PM 48.2 °F - 19.4 °F 32% 30.35 in 10.0 mi NNE 24.2 mph 29.9 mph N/A   Mostly Cloudy
3:15 PM 44.6 °F 35.5 °F 17.6 °F 34% 30.36 in 10.0 mi NNE 25.3 mph - N/A   Mostly Cloudy
3:35 PM 44.6 °F 35.3 °F 17.6 °F 34% 30.36 in 10.0 mi North 26.5 mph 31.1 mph N/A   Partly Cloudy
3:55 PM 42.8 °F 33.3 °F 15.8 °F 34% 30.37 in 10.0 mi North 24.2 mph 29.9 mph N/A   Scattered Clouds
4:15 PM 44.6 °F 35.7 °F 17.6 °F 34% 30.37 in 10.0 mi North 24.2 mph - N/A   Scattered Clouds
4:35 PM 44.6 °F 36.1 °F 15.8 °F 31% 30.39 in 10.0 mi North 21.9 mph 27.6 mph N/A   Partly Cloudy
4:55 PM 44.6 °F 35.9 °F 12.2 °F 27% 30.39 in 10.0 mi North 23.0 mph - N/A   Partly Cloudy
5:15 PM 42.8 °F 33.8 °F 10.4 °F 27% 30.40 in 10.0 mi NNE 21.9 mph 26.5 mph N/A   Clear
5:35 PM 42.8 °F 34.0 °F 10.4 °F 27% 30.40 in 10.0 mi North 20.7 mph - N/A   Clear
6:15 PM 39.2 °F 30.2 °F 10.4 °F 31% 30.42 in 10.0 mi North 17.3 mph 24.2 mph N/A   Clear
6:35 PM 39.2 °F 31.6 °F 8.6 °F 28% 30.43 in 10.0 mi North 12.7 mph - N/A   Clear
6:55 PM 39.2 °F 30.8 °F 8.6 °F 28% 30.44 in 10.0 mi North 15.0 mph - N/A   Clear
7:15 PM 37.4 °F 29.3 °F 8.6 °F 30% 30.45 in 10.0 mi NNW 12.7 mph 19.6 mph N/A   Clear
7:35 PM 37.4 °F 29.3 °F 8.6 °F 30% 30.46 in 10.0 mi NNW 12.7 mph - N/A   Clear
7:55 PM 35.6 °F 28.0 °F 6.8 °F 30% 30.46 in 10.0 mi North 10.4 mph - N/A   Clear
8:15 PM 35.6 °F 27.5 °F 6.8 °F 30% 30.47 in 10.0 mi North 11.5 mph - N/A   Clear
8:35 PM 33.8 °F 25.3 °F 6.8 °F 32% 30.48 in 10.0 mi North 11.5 mph - N/A   Clear
9:15 PM 35.6 °F 26.6 °F -0.4 °F 22% 30.49 in 10.0 mi North 13.8 mph - N/A   Clear
9:35 PM 33.8 °F 25.8 °F -2.2 °F 22% 30.50 in 10.0 mi North 10.4 mph - N/A   Clear
9:55 PM 32.0 °F 24.8 °F -2.2 °F 23% 30.51 in 10.0 mi North 8.1 mph - N/A   Clear
10:15 PM 30.2 °F 21.9 °F -2.2 °F 25% 30.51 in 10.0 mi North 9.2 mph - N/A   Clear
10:35 PM 28.4 °F 20.4 °F -2.2 °F 27% 30.52 in 10.0 mi North 8.1 mph - N/A   Clear
10:55 PM 28.4 °F 21.2 °F -0.4 °F 29% 30.53 in 10.0 mi NNE 6.9 mph - N/A   Clear
11:35 PM 26.6 °F 16.8 °F -0.4 °F 31% 30.53 in 10.0 mi North 10.4 mph - N/A   Clear
11:55 PM 24.8 °F 14.6 °F 1.4 °F 36% 30.53 in 10.0 mi North 10.4 mph - N/A   Clear